• In Germany
  • List of Countries
  • For 7 days
  • Water Temperature
  • Satellite Maps
  • Weather Map
  • Weather Widgets
  • user-avatar
    Login

    Hourly Weather Ibagué

    Today, 17 January, Wednesday

    Time Temperature Precipitation Wind Pressure Humidity
    00:00 +19°C° 0 mm 1 mps 649 mmHg 60%
    01:00 +19°C° 0 mm 1 mps 649 mmHg 60%
    02:00 +19°C° 0 mm 1 mps 649 mmHg 60%
    03:00 +18°C° 0 mm 1 mps 648 mmHg 60%
    04:00 +18°C° 0 mm 1 mps 648 mmHg 61%
    05:00 +18°C° 0 mm 1 mps 649 mmHg 61%
    06:00 +18°C° 0 mm 1 mps 649 mmHg 61%
    07:00 +19°C° 0 mm 1 mps 649 mmHg 62%
    08:00 +20°C° 0.2 mm 1 mps 650 mmHg 60%
    09:00 +21°C° 0.2 mm 1 mps 651 mmHg 58%
    10:00 +23°C° 0.2 mm 1 mps 651 mmHg 56%
    11:00 +24°C° 0.1 mm 1 mps 651 mmHg 53%
    12:00 +25°C° 0.1 mm 2 mps 651 mmHg 50%
    13:00 +26°C° 0.1 mm 2 mps 651 mmHg 48%
    14:00 +25°C° 0 mm 2 mps 650 mmHg 50%
    15:00 +25°C° 0 mm 2 mps 649 mmHg 52%
    16:00 +24°C° 0 mm 2 mps 648 mmHg 53%
    17:00 +23°C° 0 mm 1 mps 648 mmHg 60%
    18:00 +21°C° 0 mm 1 mps 648 mmHg 66%
    19:00 +18°C° 0 mm 0 mps 648 mmHg 73%
    20:00 +19°C° 0 mm 1 mps 649 mmHg 73%
    21:00 +19°C° 0 mm 1 mps 649 mmHg 74%
    22:00 +19°C° 0 mm 1 mps 649 mmHg 74%
    23:00 +19°C° 0.1 mm 1 mps 649 mmHg 74%

    Tomorrow, 18 January, Thursday

    Time Temperature Precipitation Wind Pressure Humidity
    00:00 +18°C° 0.1 mm 1 mps 649 mmHg 74%
    01:00 +16°C° 0.1 mm 0 mps 649 mmHg 74%
    02:00 +16°C° 0.1 mm 0 mps 649 mmHg 74%
    03:00 +16°C° 0.1 mm 0 mps 648 mmHg 74%
    04:00 +15°C° 0.1 mm 0 mps 648 mmHg 74%
    05:00 +16°C° 0 mm 0 mps 648 mmHg 73%
    06:00 +16°C° 0 mm 0 mps 649 mmHg 72%
    07:00 +16°C° 0 mm 0 mps 649 mmHg 70%
    08:00 +21°C° 0 mm 1 mps 650 mmHg 62%
    09:00 +23°C° 0 mm 1 mps 651 mmHg 54%
    10:00 +25°C° 0 mm 1 mps 652 mmHg 47%
    11:00 +26°C° 0 mm 1 mps 651 mmHg 45%
    12:00 +27°C° 0 mm 1 mps 651 mmHg 44%
    13:00 +27°C° 0 mm 2 mps 650 mmHg 42%
    14:00 +27°C° 0 mm 2 mps 649 mmHg 43%
    15:00 +27°C° 0 mm 2 mps 649 mmHg 43%
    16:00 +27°C° 0 mm 2 mps 648 mmHg 44%
    17:00 +25°C° 0 mm 2 mps 648 mmHg 50%
    18:00 +23°C° 0 mm 2 mps 648 mmHg 57%
    19:00 +21°C° 0 mm 1 mps 648 mmHg 63%
    20:00 +21°C° 0 mm 1 mps 649 mmHg 65%
    21:00 +20°C° 0 mm 1 mps 649 mmHg 66%
    22:00 +20°C° 0 mm 1 mps 650 mmHg 67%
    23:00 +19°C° 0.1 mm 1 mps 649 mmHg 68%

    Day after tomorrow, 19 January, Friday

    Time Temperature Precipitation Wind Pressure Humidity
    00:00 +19°C° 0.1 mm 1 mps 649 mmHg 69%
    01:00 +19°C° 0.1 mm 1 mps 649 mmHg 70%
    02:00 +18°C° 0 mm 1 mps 648 mmHg 72%
    03:00 +18°C° 0 mm 1 mps 648 mmHg 73%
    04:00 +16°C° 0 mm 0 mps 647 mmHg 74%
    05:00 +16°C° 0.1 mm 0 mps 648 mmHg 73%
    06:00 +16°C° 0.1 mm 0 mps 648 mmHg 71%
    07:00 +17°C° 0.1 mm 0 mps 649 mmHg 70%
    08:00 +21°C° 0 mm 1 mps 650 mmHg 63%
    09:00 +22°C° 0 mm 1 mps 651 mmHg 57%
    10:00 +24°C° 0 mm 1 mps 652 mmHg 50%
    11:00 +25°C° 0 mm 1 mps 651 mmHg 49%
    12:00 +26°C° 0 mm 2 mps 650 mmHg 47%
    13:00 +27°C° 0 mm 2 mps 650 mmHg 45%
    14:00 +27°C° 0 mm 2 mps 649 mmHg 46%
    15:00 +26°C° 0 mm 1 mps 648 mmHg 47%
    16:00 +26°C° 0 mm 1 mps 648 mmHg 47%
    17:00 +24°C° 0 mm 1 mps 648 mmHg 53%
    18:00 +23°C° 0 mm 1 mps 648 mmHg 59%
    19:00 +21°C° 0 mm 1 mps 648 mmHg 65%
    20:00 +21°C° 0 mm 1 mps 648 mmHg 65%
    21:00 +20°C° 0 mm 1 mps 649 mmHg 65%
    22:00 +20°C° 0 mm 1 mps 649 mmHg 65%
    23:00 +20°C° 0 mm 1 mps 649 mmHg 65%

    20 January, Saturday

    Time Temperature Precipitation Wind Pressure Humidity
    00:00 +19°C° 0 mm 1 mps 648 mmHg 65%
    01:00 +19°C° 0 mm 1 mps 648 mmHg 65%
    02:00 +19°C° 0 mm 1 mps 648 mmHg 66%
    03:00 +18°C° 0 mm 1 mps 647 mmHg 67%
    04:00 +16°C° 0 mm 0 mps 647 mmHg 68%
    05:00 +16°C° 0 mm 0 mps 648 mmHg 68%
    06:00 +19°C° 0 mm 1 mps 648 mmHg 67%
    07:00 +19°C° 0 mm 1 mps 649 mmHg 66%
    08:00 +21°C° 0 mm 1 mps 649 mmHg 61%
    09:00 +23°C° 0 mm 1 mps 650 mmHg 56%
    10:00 +24°C° 0 mm 2 mps 651 mmHg 50%
    11:00 +26°C° 0 mm 2 mps 650 mmHg 47%
    12:00 +27°C° 0 mm 2 mps 650 mmHg 43%
    13:00 +29°C° 0 mm 2 mps 650 mmHg 39%
    14:00 +29°C° 0 mm 2 mps 649 mmHg 40%
    15:00 +28°C° 0 mm 2 mps 648 mmHg 40%
    16:00 +28°C° 0 mm 2 mps 647 mmHg 41%
    17:00 +26°C° 0 mm 2 mps 647 mmHg 47%
    18:00 +24°C° 0 mm 2 mps 647 mmHg 53%
    19:00 +22°C° 0 mm 1 mps 647 mmHg 59%
    20:00 +21°C° 0.1 mm 1 mps 648 mmHg 59%
    21:00 +21°C° 0.1 mm 1 mps 648 mmHg 59%
    22:00 +20°C° 0.1 mm 1 mps 649 mmHg 60%
    23:00 +20°C° 0.1 mm 1 mps 648 mmHg 60%

    21 January, Sunday

    Time Temperature Precipitation Wind Pressure Humidity
    00:00 +20°C° 0.1 mm 1 mps 648 mmHg 60%
    01:00 +19°C° 0.1 mm 1 mps 648 mmHg 61%
    02:00 +19°C° 0 mm 1 mps 647 mmHg 62%
    03:00 +19°C° 0 mm 1 mps 647 mmHg 63%
    04:00 +18°C° 0 mm 1 mps 647 mmHg 64%
    05:00 +19°C° 0 mm 1 mps 647 mmHg 63%
    06:00 +19°C° 0 mm 1 mps 648 mmHg 63%
    07:00 +19°C° 0 mm 1 mps 648 mmHg 62%
    08:00 +22°C° 0 mm 1 mps 649 mmHg 56%
    09:00 +24°C° 0 mm 1 mps 650 mmHg 50%
    10:00 +26°C° 0 mm 2 mps 650 mmHg 44%
    11:00 +27°C° 0 mm 2 mps 650 mmHg 42%
    12:00 +28°C° 0 mm 2 mps 649 mmHg 40%
    13:00 +29°C° 0 mm 2 mps 649 mmHg 37%
    14:00 +29°C° 0 mm 2 mps 648 mmHg 37%
    15:00 +29°C° 0 mm 1 mps 648 mmHg 36%
    16:00 +29°C° 0 mm 1 mps 647 mmHg 35%
    17:00 +27°C° 0 mm 1 mps 647 mmHg 42%
    18:00 +25°C° 0 mm 1 mps 647 mmHg 48%
    19:00 +21°C° 0 mm 2 mps 647 mmHg 54%
    20:00 +22°C° 0 mm 1 mps 647 mmHg 54%
    21:00 +21°C° 0 mm 1 mps 648 mmHg 53%
    22:00 +21°C° 0 mm 1 mps 648 mmHg 53%
    23:00 +20°C° 0.1 mm 1 mps 648 mmHg 54%

    22 January, Monday

    Time Temperature Precipitation Wind Pressure Humidity
    00:00 +20°C° 0.1 mm 1 mps 648 mmHg 54%
    01:00 +20°C° 0.1 mm 1 mps 647 mmHg 55%
    02:00 +19°C° 0 mm 1 mps 647 mmHg 56%
    03:00 +19°C° 0 mm 1 mps 647 mmHg 57%
    04:00 +19°C° 0 mm 1 mps 647 mmHg 59%
    05:00 +19°C° 0 mm 1 mps 647 mmHg 59%
    06:00 +19°C° 0 mm 1 mps 648 mmHg 59%
    07:00 +20°C° 0 mm 1 mps 648 mmHg 59%
    08:00 +22°C° 0 mm 1 mps 649 mmHg 53%
    09:00 +24°C° 0 mm 2 mps 650 mmHg 48%
    10:00 +27°C° 0 mm 2 mps 650 mmHg 43%
    11:00 +28°C° 0 mm 2 mps 650 mmHg 41%
    12:00 +28°C° 0 mm 2 mps 649 mmHg 40%
    13:00 +29°C° 0 mm 2 mps 648 mmHg 38%
    14:00 +29°C° 0 mm 2 mps 648 mmHg 38%
    15:00 +29°C° 0 mm 1 mps 647 mmHg 37%
    16:00 +29°C° 0 mm 1 mps 647 mmHg 37%
    17:00 +27°C° 0.1 mm 1 mps 646 mmHg 44%
    18:00 +24°C° 0.1 mm 1 mps 646 mmHg 51%
    19:00 +22°C° 0.1 mm 1 mps 646 mmHg 58%
    20:00 +21°C° 0.1 mm 1 mps 647 mmHg 58%
    21:00 +21°C° 0.1 mm 1 mps 647 mmHg 58%
    22:00 +20°C° 0.1 mm 1 mps 647 mmHg 59%
    23:00 +20°C° 0.1 mm 1 mps 647 mmHg 59%
    Show more